This is the latest recevied weather packets stored in our database for station/object N3WGC-14. If no packets are shown the sender has not sent any weather packets the latest 1 day(s).
| Time | Temp. | Humidity | Pressure | Rain* | Wind** | Luminosity | Snow |
|---|---|---|---|---|---|---|---|
| 1778005140 | 26.67° C | 52% | 1011.1 hPa | 0 mm | 1.34 m/s, 212° | - | - |
| 1778004840 | 26.67° C | 52% | 1011.3 hPa | 0 mm | 2.24 m/s, 161° | - | - |
| 1778004540 | 26.67° C | 52% | 1011.3 hPa | 0 mm | 2.24 m/s, 148° | - | - |
| 1778004240 | 26.67° C | 54% | 1011.4 hPa | 0 mm | 3.13 m/s, 238° | - | - |
| 1778003940 | 26.67° C | 53% | 1011.4 hPa | 0 mm | 1.34 m/s, 115° | - | - |
| 1778003640 | 26.67° C | 54% | 1011.4 hPa | 0 mm | 2.24 m/s, 224° | - | - |
| 1778003339 | 26.11° C | 54% | 1011.4 hPa | 0 mm | 1.34 m/s, 236° | - | - |
| 1778003039 | 26.11° C | 55% | 1011.4 hPa | 0 mm | 0.89 m/s, 271° | - | - |
| 1778002739 | 26.11° C | 55% | 1011.5 hPa | 0 mm | 0.89 m/s, 182° | - | - |
| 1778002439 | 26.11° C | 56% | 1011.5 hPa | 0 mm | 1.34 m/s, 142° | - | - |
| 1778002139 | 25.56° C | 55% | 1011.6 hPa | 0 mm | 2.68 m/s, 124° | - | - |
| 1778001839 | 25.56° C | 56% | 1011.6 hPa | 0 mm | 1.34 m/s, 123° | - | - |
| 1778001539 | 25° C | 58% | 1011.7 hPa | 0 mm | 1.34 m/s, 201° | - | - |
| 1778001238 | 25° C | 58% | 1011.7 hPa | 0 mm | 1.34 m/s, 80° | - | - |
| 1778000938 | 25° C | 59% | 1011.7 hPa | 0 mm | 1.34 m/s, 115° | - | - |
| 1778000638 | 25° C | 58% | 1011.9 hPa | 0 mm | 0.89 m/s, 128° | - | - |
| 1778000338 | 25° C | 60% | 1011.9 hPa | 0 mm | 0.89 m/s, 141° | - | - |
| 1778000038 | 24.44° C | 62% | 1011.9 hPa | 0 mm | 0.89 m/s, 105° | - | - |
| 1777999738 | 24.44° C | 59% | 1012 hPa | 0 mm | 1.34 m/s, 108° | - | - |
| 1777999437 | 24.44° C | 60% | 1012.1 hPa | 0 mm | 1.34 m/s, 150° | - | - |
| 1777999137 | 24.44° C | 60% | 1012.2 hPa | 0 mm | 0.89 m/s, 111° | - | - |
| 1777998837 | 24.44° C | 60% | 1012.2 hPa | 0 mm | 0.89 m/s, 138° | - | - |
| 1777998537 | 23.89° C | 60% | 1012.2 hPa | 0 mm | 1.34 m/s, 327° | - | - |
| 1777998237 | 23.89° C | 61% | 1012.2 hPa | 0 mm | 2.24 m/s, 141° | - | - |
| 1777997937 | 23.89° C | 60% | 1012.3 hPa | 0 mm | 0.89 m/s, 227° | - | - |
* Rain latest hour (hover to see other rain measurements)
** Current wind speed in m/s (hover to see current wind gust speed)